Weather History for Paducah, KY

Change the Weather History Date:

Friday, January 4, 2013

  Actual Average Record
Temperature  
Mean Temperature 32 °F 34 °F  
Max Temperature 43 °F 43 °F 70 °F (1939)
Min Temperature 20 °F 26 °F 2 °F (1959)
Degree Days  
Heating Degree Days 33 31  
Month to date heating degree days 144 121  
Since 1 July heating degree days 1671 1752  
Cooling Degree Days 0 0  
Month to date cooling degree days 0 0  
Year to date cooling degree days 0 0  
Moisture  
Dew Point 25 °F    
Average Humidity 77    
Maximum Humidity 96    
Minimum Humidity 57    
Precipitation  
Precipitation 0.00 in 0.13 in 2.47 in (1950)
Month to date precipitation T 0.50  
Year to date precipitation T 0.50  
Snow  
Snow 0.00 in 0.10 in 1.00 in (1972)
Month to date snowfall T 0.4  
Since 1 July snowfall 5.7 2.7  
Snow Depth 0.00 in    
Sea Level Pressure  
Sea Level Pressure 30.42 in    
Wind  
Wind Speed 5 mph (WSW)    
Max Wind Speed 13 mph    
Max Gust Speed 18 mph    
Visibility 8 miles    
Events      
T = Trace of Precipitation, MM = Missing Value Source: NWS Daily Summary

Daily Weather History Graph

Daily Weather History Graph

Search for Another Location

Airport:

Trip Planner

Search our weather history database for the weather conditions in past years. The results will help you decide how hot, cold, wet, or windy it might be!

Date:

Astronomy

Jan. 04, 2013 Rise Set
Actual Time 7:08 AM CST 4:51 PM CST
Civil Twilight 6:40 AM CST 5:20 PM CST
Nautical Twilight 6:07 AM CST 5:52 PM CST
Astronomical Twilight 5:36 AM CST 6:24 PM CST
Moon No Moon Rise 11:02 AM CST (1/4)
Length of Visible Light 10h 40m
Length of Day
9h 42m
Waning Gibbous, 55% of the Moon is Illuminated
Jan 4
Waning Gibbous
Jan 4
Last Quarter
Jan 11
New
Jan 18
First Quarter
Jan 26
Full

Hourly Weather History & Observations

Time (CST) Temp. Windchill Dew Point Humidity Pressure Visibility Wind Dir Wind Speed Gust Speed Precip Events Conditions
12:53 AM 21.9 °F - 19.9 °F 92% 30.41 in 6.0 mi Calm Calm - N/A   Clear
1:53 AM 24.1 °F - 21.0 °F 88% 30.41 in 6.0 mi Calm Calm - N/A   Clear
2:53 AM 21.9 °F 17.2 °F 19.0 °F 89% 30.41 in 6.0 mi SW 3.5 mph - N/A   Clear
3:53 AM 24.1 °F 18.2 °F 21.9 °F 91% 30.42 in 5.0 mi WSW 4.6 mph - N/A   Clear
4:53 AM 24.1 °F 19.7 °F 21.0 °F 88% 30.42 in 4.0 mi SW 3.5 mph - N/A   Partly Cloudy
5:53 AM 23.0 °F 18.4 °F 21.2 °F 93% 30.42 in 4.0 mi WSW 3.5 mph - N/A   Clear
6:53 AM 21.2 °F 14.9 °F 19.4 °F 93% 30.42 in 3.0 mi SW 4.6 mph - N/A   Clear
7:53 AM 27.0 °F - 25.0 °F 92% 30.44 in 5.0 mi Calm Calm - N/A   Clear
8:53 AM 32.0 °F 24.8 °F 28.0 °F 85% 30.46 in 7.0 mi SW 8.1 mph - N/A   Clear
9:53 AM 37.0 °F 31.6 °F 28.9 °F 73% 30.48 in 10.0 mi NW 6.9 mph - N/A   Clear
10:53 AM 36.0 °F 32.1 °F 28.9 °F 76% 30.48 in 6.0 mi North 4.6 mph - N/A   Haze
11:53 AM 39.0 °F 34.8 °F 30.0 °F 70% 30.45 in 9.0 mi Variable 5.8 mph - N/A   Clear
12:53 PM 42.1 °F 36.1 °F 30.0 °F 62% 30.42 in 10.0 mi WSW 10.4 mph - N/A   Clear
1:53 PM 43.0 °F 36.8 °F 30.0 °F 60% 30.40 in 10.0 mi West 11.5 mph - N/A   Clear
2:53 PM 42.1 °F 37.7 °F 28.9 °F 60% 30.40 in 10.0 mi WSW 6.9 mph - N/A   Clear
3:53 PM 41.0 °F 35.8 °F 28.0 °F 60% 30.41 in 10.0 mi WSW 8.1 mph - N/A   Clear
4:53 PM 36.0 °F 32.1 °F 26.1 °F 67% 30.40 in 10.0 mi WSW 4.6 mph - N/A   Clear
5:53 PM 36.0 °F 33.3 °F 26.1 °F 67% 30.41 in 10.0 mi SSW 3.5 mph - N/A   Clear
6:53 PM 30.0 °F 26.5 °F 25.0 °F 82% 30.40 in 10.0 mi SW 3.5 mph - N/A   Clear
7:53 PM 33.8 °F 30.8 °F 26.6 °F 75% 30.39 in 10.0 mi SSW 3.5 mph - N/A   Clear
8:53 PM 33.1 °F 30.0 °F 26.1 °F 75% 30.40 in 10.0 mi SSW 3.5 mph - N/A   Clear
9:53 PM 30.0 °F 26.5 °F 25.0 °F 82% 30.40 in 10.0 mi SW 3.5 mph - N/A   Clear
10:53 PM 28.9 °F - 24.1 °F 82% 30.39 in 10.0 mi Calm Calm - N/A   Clear
11:53 PM 28.0 °F 22.8 °F 24.1 °F 85% 30.38 in 10.0 mi SW 4.6 mph - N/A   Clear